EW1940 Weather Reports


Display with metric or nautical units.
time (UTC)temp
F
wind
direction
speed
MPH
gust
MPH
rain 1hr
in
rain 24hr
in
rain mn
in
humidity
%
barometer
mb
20260504045017 54 315 2.0 6.0 0.00 0.00 0.00 88 1012.3
20260504044015 54 0 2.0 4.0 0.00 0.00 0.00 88 1012.2
20260504043015 54 338 1.0 4.0 0.00 0.00 0.00 88 1012.2
20260504042017 54 338 2.0 4.0 0.00 0.00 0.00 88 1012.2
20260504041017 54 293 1.0 3.0 0.00 0.00 0.00 88 1012.3
20260504040017 54 338 3.0 6.0 0.00 0.00 0.00 88 1012.2
20260504035017 54 0 1.0 3.0 0.00 0.00 0.00 88 1012.3
20260504034037 54 0.0 1.0 0.00 0.00 0.00 88 1012.1
20260504033017 54 0.0 3.0 0.00 0.00 0.00 88 1012.1
20260504032019 54 293 2.0 4.0 0.00 0.00 0.00 88 1012.1
20260504031017 54 338 2.0 5.0 0.00 0.00 0.00 89 1012.1
20260504030017 54 293 2.0 4.0 0.00 0.00 0.00 89 1012.2
20260504025017 54 0.0 3.0 0.00 0.00 0.00 89 1012.2
20260504024019 54 293 1.0 3.0 0.00 0.00 0.00 89 1012.2
20260504023018 54 315 3.0 6.0 0.00 0.00 0.00 88 1012.0
20260504022017 54 338 1.0 3.0 0.00 0.00 0.00 89 1012.0
20260504021059 54 315 1.0 2.0 0.00 0.00 0.00 88 1012.0
20260504020038 54 0.0 2.0 0.00 0.00 0.00 88 1012.0
20260504015015 54 293 1.0 4.0 0.00 0.00 0.00 88 1011.9
20260504014017 54 293 1.0 4.0 0.00 0.00 0.00 88 1011.9
20260504013018 54 0.0 1.0 0.00 0.00 0.00 88 1012.0
20260504012038 54 248 1.0 3.0 0.00 0.00 0.00 89 1012.1
20260504011017 54 270 1.0 4.0 0.00 0.00 0.00 89 1012.1
20260504010017 54 315 3.0 7.0 0.00 0.00 0.00 89 1012.1
20260504005017 54 315 2.0 6.0 0.00 0.00 0.00 89 1012.1
20260504004018 54 293 2.0 5.0 0.00 0.00 0.00 89 1012.0
20260504003018 54 293 1.0 3.0 0.00 0.00 0.00 89 1012.0
20260504002100 54 293 1.0 3.0 0.00 0.00 0.00 90 1011.9
20260504001018 55 293 1.0 2.0 0.00 0.00 0.00 90 1012.0
20260504000100 55 270 2.0 5.0 0.00 0.00 0.00 90 1012.0
20260503235017 55 293 1.0 4.0 0.00 0.00 0.00 91 1012.1
20260503234017 55 270 1.0 4.0 0.00 0.00 0.00 91 1012.1
20260503233017 55 270 1.0 3.0 0.00 0.00 0.00 91 1012.0
20260503232017 55 270 2.0 4.0 0.00 0.00 0.00 91 1012.0
20260503231017 55 293 2.0 4.0 0.00 0.00 0.00 91 1012.0
20260503230017 55 293 1.0 5.0 0.00 0.00 0.00 91 1011.9
20260503225017 55 270 1.0 4.0 0.00 0.00 0.00 91 1011.9
20260503224017 54 315 1.0 2.0 0.00 0.00 0.00 92 1011.9
20260503223037 54 0.0 0.0 0.00 0.00 0.00 92 1011.8
20260503222017 54 293 1.0 3.0 0.00 0.00 0.00 91 1011.8
20260503221038 54 248 1.0 4.0 0.00 0.00 0.00 91 1011.7
20260503220018 54 248 2.0 5.0 0.00 0.00 0.00 91 1011.7
20260503215036 54 270 1.0 5.0 0.00 0.00 0.00 91 1011.5
20260503214017 54 293 2.0 5.0 0.00 0.00 0.00 90 1011.5
20260503213016 54 270 1.0 4.0 0.00 0.00 0.00 90 1011.5
20260503212017 54 270 1.0 4.0 0.00 0.00 0.00 90 1011.3
20260503211037 54 225 1.0 3.0 0.00 0.00 0.00 89 1011.3
20260503210017 55 0.0 2.0 0.00 0.00 0.00 89 1011.2
20260503205038 55 225 1.0 3.0 0.00 0.00 0.00 89 1011.2
20260503204016 55 270 1.0 5.0 0.00 0.00 0.00 89 1011.1
20260503203018 56 225 3.0 6.0 0.00 0.00 0.00 88 1010.9
20260503202016 56 225 3.0 7.0 0.00 0.00 0.00 89 1010.8
20260503201016 56 225 3.0 7.0 0.00 0.00 0.00 88 1010.6
20260503200016 57 225 3.0 7.0 0.00 0.00 0.00 88 1010.5
20260503195018 57 225 3.0 5.0 0.00 0.00 0.00 87 1010.5
20260503194016 57 225 3.0 7.0 0.00 0.00 0.00 87 1010.4
20260503193016 57 225 3.0 7.0 0.00 0.00 0.00 86 1010.3
20260503192016 57 225 3.0 7.0 0.00 0.00 0.00 86 1010.2
20260503191017 58 225 3.0 7.0 0.00 0.00 0.00 85 1010.2
20260503190016 58 225 5.0 11.0 0.00 0.00 0.00 84 1010.1
20260503185018 58 225 4.0 8.0 0.00 0.00 0.00 84 1009.9
20260503184016 59 225 4.0 9.0 0.00 0.00 0.00 83 1009.8
20260503183038 59 225 5.0 11.0 0.00 0.00 0.00 83 1009.8
20260503182016 59 225 3.0 7.0 0.00 0.00 0.00 83 1009.6
20260503181038 59 203 4.0 8.0 0.00 0.00 0.00 81 1009.6
20260503180018 60 225 6.0 8.0 0.00 0.00 0.00 80 1009.6
20260503175016 60 225 4.0 8.0 0.00 0.00 0.00 80 1009.7
20260503174016 61 248 6.0 9.0 0.00 0.00 0.00 79 1009.6
20260503173036 60 225 5.0 9.0 0.00 0.00 0.00 80 1009.5
20260503172018 60 225 4.0 8.0 0.00 0.00 0.00 80 1009.5
20260503171016 61 225 6.0 10.0 0.00 0.00 0.00 79 1009.6
20260503131016 63 225 5.0 9.0 0.00 0.17 0.00 77 1010.3
20260503081017 56 248 2.0 5.0 0.00 0.17 0.00 92 1010.3
20260503072017 55 315 1.0 3.0 0.00 0.17 0.00 94 1010.3
20260503071017 55 315 2.0 5.0 0.00 0.17 0.00 94 1010.2